sat.trackr.live / text

‹ back to catalog

ARIRANG-3 (KOMPSAT-3)

NORAD 38338 · 2012-025B

PAYLOAD ACTIVE UNKNOWN

§ Identity

Operator
Country
SKOR
Launch date
2012-05-17
Launch site
TANSC
Launch vehicle
Mass (kg)
RCS (m²)
5.26

Purposes: earth_obs

External: N2YO · Heavens-Above · Gunter

§ Orbital elements

Epoch: 2026-09-13T04:03:41.872032Z

Period
98.48 min
Inclination
98.1268°
Eccentricity
0.0004989
Mean motion
14.62270201 rev/d
Perigee alt
682.3 km
Apogee alt
689.4 km
Semi-major
7,064.0 km
B*
6.1917e-5
RAAN
212.1532°
Arg perigee
184.5548°
Mean anomaly
175.5609°
Rev number
76,420

§ Raw data

ARIRANG-3 (KOMPSAT-3)1 38338U 12025B   26256.16923463  .00000266  00000+0  61917-4 0  99912 38338  98.1268 212.1532 0004989 184.5548 175.5609 14.62270201764209

JSON: /api/v1/satellites/38338 · /tle

For live sub-satellite position, see the globe view (requires WebGL).

§ Visibility from observer

Set your observer location to see the next 7 days of passes ≥ 10°. The values pass through the URL so the page stays shareable.

No JS? Fill the form by hand. The geolocation button needs JavaScript.

§ Radio — SatNOGS DB

ModeDescriptionDownlinkUplink
BPSK S-band telemetry 2.232 GHz
FM S-band telemetry (inactive) 2.234 GHz

2 transmitters · refreshed weekly from db.satnogs.org